Simultaneous Nadir Overpasses (SNOs) Predictions

Prediction of SNOs between NOAA-20 and METOP-B Satellite Orbit:

Table of predicted SNOs for the next 14.0 days since TLE Epoch: 12/25/2018
Index Date (NOAA-20) Time (NOAA-20) Lat,Lon (NOAA-20) SZA (NOAA-20 ) Date (METOP-B) Time (METOP-B) Lat,Lon (METOP-B) SZA (METOP-B ) Distance(km) Time Diff (sec)
1 01/07/2019 00:06:22 73.53, 168.45 96.17 01/07/2019 00:07:28 73.48, 171.27 95.99 89.23 66
2 01/07/2019 00:57:05 -73.46, -24.08 83.91 01/07/2019 00:58:12 -73.40, -21.60 84.10 79.18 67
3 01/07/2019 01:47:46 73.23, 143.75 95.84 01/07/2019 01:48:56 73.17, 145.22 95.69 47.77 70
4 01/07/2019 02:38:28 -73.12, -48.68 84.30 01/07/2019 02:39:40 -73.08, -47.64 84.40 33.88 72
5 01/07/2019 03:29:10 72.93, 119.03 95.50 01/07/2019 03:30:23 72.89, 119.30 95.44 9.72 73
6 01/07/2019 04:19:53 -72.87, -73.52 84.58 01/07/2019 04:21:06 -72.86, -73.45 84.60 2.46 73
7 01/07/2019 05:10:38 72.83, 93.86 95.38 01/07/2019 05:11:46 72.83, 93.81 95.37 1.90 68
8 01/07/2019 06:01:22 -72.82, -98.79 84.64 01/07/2019 06:02:28 -72.84, -98.83 84.63 2.83 66
9 01/07/2019 06:52:08 72.84, 68.48 95.38 01/07/2019 06:53:07 72.86, 68.54 95.39 3.09 59
10 01/07/2019 07:42:52 -72.82,-124.17 84.65 01/07/2019 07:43:50 -72.83,-124.21 84.65 1.08 58
11 01/07/2019 08:33:38 72.84, 43.10 95.37 01/07/2019 08:34:29 72.84, 43.16 95.36 1.92 51
12 01/07/2019 09:24:22 -72.82,-149.55 84.65 01/07/2019 09:25:12 -72.81,-149.58 84.68 2.14 50
13 01/07/2019 10:15:08 72.84, 17.72 95.37 01/07/2019 10:15:51 72.82, 17.78 95.34 2.89 43
14 01/07/2019 11:05:52 -72.83,-174.93 84.66 01/07/2019 11:06:33 -72.84,-174.85 84.66 2.95 41
15 01/07/2019 11:56:37 72.79, -7.55 95.31 01/07/2019 11:57:13 72.80, -7.60 95.31 1.91 36
16 01/07/2019 12:47:22 -72.83, 159.69 84.66 01/07/2019 12:47:55 -72.82, 159.77 84.68 2.76 33
17 01/07/2019 13:38:07 72.80, -32.93 95.30 01/07/2019 13:38:35 72.79, -32.97 95.29 1.79 28
18 01/07/2019 14:28:51 -72.78, 134.41 84.73 01/07/2019 14:29:17 -72.80, 134.39 84.71 2.64 26
19 01/07/2019 15:19:37 72.80, -58.31 95.29 01/07/2019 15:19:56 72.82, -58.25 95.31 3.10 19
20 01/07/2019 16:10:21 -72.78, 109.03 84.73 01/07/2019 16:10:39 -72.79, 109.01 84.73 0.77 18
21 01/07/2019 17:01:07 72.80, -83.69 95.29 01/07/2019 17:01:18 72.80, -83.62 95.28 2.18 11
22 01/07/2019 17:51:51 -72.79, 83.66 84.74 01/07/2019 17:52:01 -72.77, 83.63 84.76 2.12 10
23 01/07/2019 18:42:37 72.80,-109.07 95.28 01/07/2019 18:42:40 72.78,-109.00 95.26 3.23 3
24 01/07/2019 19:33:21 -72.79, 58.28 84.74 01/07/2019 19:33:22 -72.80, 58.36 84.74 3.17 1
25 01/07/2019 20:24:06 72.75,-134.34 95.22 01/07/2019 20:24:02 72.76,-134.38 95.23 1.55 4
26 01/07/2019 21:14:51 -72.79, 32.90 84.75 01/07/2019 21:14:44 -72.78, 32.99 84.76 3.08 7
27 01/07/2019 22:05:36 72.76,-159.72 95.21 01/07/2019 22:05:24 72.74,-159.76 95.21 1.73 12
28 01/07/2019 22:56:20 -72.74, 7.62 84.81 01/07/2019 22:56:06 -72.76, 7.61 84.79 2.45 14
29 01/07/2019 23:47:06 72.76, 174.90 95.21 01/07/2019 23:46:45 72.78, 174.97 95.23 3.15 21
30 01/08/2019 00:37:50 -72.74, -17.76 84.82 01/08/2019 00:37:28 -72.75, -17.77 84.81 0.43 22
31 01/08/2019 01:28:36 72.76, 149.52 95.20 01/08/2019 01:28:07 72.76, 149.59 95.20 2.48 29
32 01/08/2019 02:19:20 -72.75, -43.14 84.82 01/08/2019 02:18:50 -72.73, -43.15 84.84 2.16 30
33 01/08/2019 03:10:05 72.71, 124.24 95.14 01/08/2019 03:09:29 72.74, 124.22 95.18 3.22 36




NCC Satellite Simultaneous Nadir Overpasses (SNOs) Prediction Service
